| time (UTC) | temp F | wind direction | speed MPH | gust MPH | rain 1hr in | rain 24hr in | rain mn in | humidity % | barometer mb |
| 20260507081652 | 57 | 25 | 2.0 | 2.0 | 0.00 | 0.00 | 0.00 | 85 | 1019.7 |
| 20260507081143 | 57 | 72 | 1.0 | 3.0 | 0.00 | 0.00 | 0.00 | 84 | 1019.6 |
| 20260507080640 | 57 | 32 | 2.0 | 3.0 | 0.00 | 0.00 | 0.00 | 84 | 1019.6 |
| 20260507080136 | 57 | 11 | 2.0 | 3.0 | 0.00 | 0.00 | 0.00 | 84 | 1019.7 |
| 20260507075631 | 57 | 63 | 1.0 | 3.0 | 0.00 | 0.00 | 0.00 | 84 | 1019.5 |
| 20260507075127 | 57 | 92 | 0.0 | 1.0 | 0.00 | 0.00 | 0.00 | 84 | 1019.4 |
| 20260507074624 | 57 | 83 | 0.0 | 5.0 | 0.00 | 0.00 | 0.00 | 84 | 1019.5 |
| 20260507074123 | 57 | 72 | 1.0 | 2.0 | 0.00 | 0.00 | 0.00 | 84 | 1019.3 |
| 20260507073618 | 57 | 43 | 1.0 | 2.0 | 0.00 | 0.00 | 0.00 | 84 | 1019.4 |
| 20260507073114 | 57 | 46 | 1.0 | 5.0 | 0.00 | 0.00 | 0.00 | 83 | 1019.3 |
| 20260507072613 | 57 | 54 | 1.0 | 5.0 | 0.00 | 0.00 | 0.00 | 83 | 1019.1 |
| 20260507072110 | 57 | 98 | 1.0 | 5.0 | 0.00 | 0.00 | 0.00 | 84 | 1018.9 |
| 20260507071607 | 57 | 135 | 1.0 | 3.0 | 0.00 | 0.00 | 0.00 | 84 | 1018.9 |
| 20260507071103 | 57 | 312 | 2.0 | 3.0 | 0.00 | 0.00 | 0.00 | 83 | 1018.6 |
| 20260507070600 | 58 | 49 | 2.0 | 5.0 | 0.00 | 0.00 | 0.00 | 84 | 1018.6 |
| 20260507070057 | 58 | 352 | 1.0 | 2.0 | 0.00 | 0.00 | 0.00 | 84 | 1018.6 |
| 20260507065553 | 58 | 35 | 3.0 | 3.0 | 0.00 | 0.00 | 0.00 | 83 | 1018.6 |
| 20260507065051 | 58 | 352 | 1.0 | 3.0 | 0.00 | 0.00 | 0.00 | 83 | 1018.6 |
| 20260507064549 | 58 | 59 | 4.0 | 7.0 | 0.00 | 0.00 | 0.00 | 83 | 1018.6 |
| 20260507064047 | 59 | 33 | 3.0 | 3.0 | 0.00 | 0.00 | 0.00 | 83 | 1018.5 |
| 20260507063544 | 59 | 41 | 3.0 | 7.0 | 0.00 | 0.00 | 0.00 | 83 | 1018.6 |
| 20260507063041 | 58 | 93 | 0.0 | 6.0 | 0.00 | 0.00 | 0.00 | 83 | 1018.8 |
| 20260507062537 | 58 | 55 | 1.0 | 1.0 | 0.00 | 0.00 | 0.00 | 82 | 1018.9 |
| 20260507062035 | 59 | 53 | 1.0 | 2.0 | 0.00 | 0.00 | 0.00 | 82 | 1018.8 |
| 20260507061533 | 59 | 88 | 1.0 | 5.0 | 0.00 | 0.00 | 0.00 | 81 | 1018.6 |
| 20260507061031 | 59 | 101 | 0.0 | 3.0 | 0.00 | 0.00 | 0.00 | 81 | 1018.5 |
| 20260507060528 | 59 | 66 | 1.0 | 2.0 | 0.00 | 0.00 | 0.00 | 80 | 1018.5 |
| 20260507060025 | 59 | 92 | 0.0 | 7.0 | 0.00 | 0.00 | 0.00 | 79 | 1018.5 |
| 20260507055520 | 59 | 80 | 2.0 | 3.0 | 0.00 | 0.00 | 0.00 | 79 | 1018.4 |
| 20260507055017 | 60 | 63 | 2.0 | 6.0 | 0.00 | 0.00 | 0.00 | 79 | 1018.4 |
| 20260507054513 | 60 | 63 | 2.0 | 5.0 | 0.00 | 0.00 | 0.00 | 78 | 1018.7 |
| 20260507054010 | 60 | 68 | 2.0 | 3.0 | 0.00 | 0.00 | 0.00 | 78 | 1018.6 |
| 20260507053508 | 60 | 31 | 5.0 | 7.0 | 0.00 | 0.00 | 0.00 | 78 | 1018.6 |
| 20260507053006 | 60 | 52 | 3.0 | 6.0 | 0.00 | 0.00 | 0.00 | 77 | 1018.5 |
| 20260507052504 | 60 | 81 | 3.0 | 5.0 | 0.00 | 0.00 | 0.00 | 78 | 1018.6 |
| 20260507052000 | 60 | 46 | 3.0 | 5.0 | 0.00 | 0.00 | 0.00 | 78 | 1018.7 |
| 20260507051458 | 60 | 52 | 3.0 | 6.0 | 0.00 | 0.00 | 0.00 | 77 | 1018.6 |
| 20260507050954 | 60 | 53 | 1.0 | 3.0 | 0.00 | 0.00 | 0.00 | 78 | 1018.6 |
| 20260507050451 | 60 | 100 | 1.0 | 8.0 | 0.00 | 0.00 | 0.00 | 78 | 1018.5 |
| 20260507045948 | 60 | 42 | 5.0 | 7.0 | 0.00 | 0.12 | 0.12 | 78 | 1018.4 |
| 20260507045444 | 60 | 43 | 2.0 | 8.0 | 0.00 | 0.12 | 0.12 | 77 | 1018.7 |
| 20260507044942 | 60 | 117 | 4.0 | 9.0 | 0.00 | 0.12 | 0.12 | 77 | 1018.5 |
| 20260507044438 | 60 | 77 | 3.0 | 6.0 | 0.00 | 0.12 | 0.12 | 77 | 1018.7 |
| 20260507043934 | 60 | 55 | 3.0 | 7.0 | 0.00 | 0.12 | 0.12 | 77 | 1018.6 |
| 20260507043431 | 60 | 83 | 0.0 | 3.0 | 0.00 | 0.12 | 0.12 | 77 | 1018.7 |
| 20260507042927 | 60 | 54 | 4.0 | 8.0 | 0.00 | 0.12 | 0.12 | 76 | 1018.8 |
| 20260507042424 | 60 | 30 | 1.0 | 7.0 | 0.00 | 0.12 | 0.12 | 77 | 1018.7 |
| 20260507041920 | 60 | 7 | 5.0 | 7.0 | 0.00 | 0.12 | 0.12 | 76 | 1018.9 |
| 20260507041417 | 60 | 83 | 3.0 | 6.0 | 0.00 | 0.12 | 0.12 | 76 | 1019.0 |
| 20260507040914 | 60 | 84 | 1.0 | 6.0 | 0.00 | 0.12 | 0.12 | 76 | 1018.7 |
| 20260507040410 | 61 | 4 | 2.0 | 6.0 | 0.00 | 0.12 | 0.12 | 76 | 1018.9 |
| 20260507035906 | 61 | 98 | 2.0 | 5.0 | 0.00 | 0.12 | 0.12 | 77 | 1018.8 |
| 20260507035402 | 61 | 105 | 3.0 | 6.0 | 0.00 | 0.12 | 0.12 | 76 | 1018.8 |
| 20260507034859 | 61 | 58 | 3.0 | 10.0 | 0.00 | 0.12 | 0.12 | 75 | 1019.0 |
| 20260507034356 | 61 | 39 | 3.0 | 8.0 | 0.00 | 0.12 | 0.12 | 76 | 1018.9 |
| 20260507033854 | 61 | 46 | 5.0 | 9.0 | 0.00 | 0.12 | 0.12 | 76 | 1018.9 |
| 20260507033352 | 61 | 310 | 5.0 | 8.0 | 0.00 | 0.12 | 0.12 | 76 | 1018.9 |
| 20260507032848 | 61 | 33 | 5.0 | 9.0 | 0.00 | 0.12 | 0.12 | 77 | 1018.7 |
| 20260507032345 | 62 | 57 | 3.0 | 7.0 | 0.00 | 0.12 | 0.12 | 76 | 1018.8 |
| 20260507031841 | 61 | 94 | 2.0 | 6.0 | 0.00 | 0.12 | 0.12 | 77 | 1018.8 |
| 20260507031338 | 61 | 79 | 2.0 | 7.0 | 0.00 | 0.12 | 0.12 | 77 | 1018.6 |
| 20260507030835 | 61 | 79 | 1.0 | 5.0 | 0.00 | 0.12 | 0.12 | 78 | 1018.5 |
| 20260507030333 | 62 | 110 | 0.0 | 5.0 | 0.00 | 0.12 | 0.12 | 78 | 1018.6 |
| 20260507025829 | 62 | 78 | 1.0 | 3.0 | 0.00 | 0.12 | 0.12 | 78 | 1018.8 |
| 20260507025326 | 62 | 35 | 3.0 | 3.0 | 0.00 | 0.12 | 0.12 | 78 | 1018.5 |
| 20260507024824 | 62 | 58 | 2.0 | 5.0 | 0.00 | 0.12 | 0.12 | 78 | 1018.7 |
| 20260507024321 | 62 | 51 | 2.0 | 6.0 | 0.00 | 0.12 | 0.12 | 78 | 1018.4 |
| 20260507023817 | 62 | 78 | 1.0 | 5.0 | 0.00 | 0.12 | 0.12 | 78 | 1018.2 |
| 20260507023314 | 62 | 336 | 3.0 | 5.0 | 0.00 | 0.12 | 0.12 | 78 | 1018.2 |
| 20260507022811 | 62 | 70 | 2.0 | 5.0 | 0.00 | 0.12 | 0.12 | 78 | 1018.0 |
| 20260507022307 | 62 | 21 | 2.0 | 6.0 | 0.00 | 0.12 | 0.12 | 78 | 1017.8 |
| 20260507021803 | 62 | 50 | 1.0 | 5.0 | 0.00 | 0.12 | 0.12 | 79 | 1017.5 |
| 20260507021259 | 62 | 1 | 5.0 | 7.0 | 0.00 | 0.12 | 0.12 | 79 | 1017.5 |
| 20260507020757 | 61 | 77 | 3.0 | 8.0 | 0.00 | 0.12 | 0.12 | 79 | 1017.4 |
| 20260507020254 | 61 | 10 | 4.0 | 7.0 | 0.00 | 0.12 | 0.12 | 80 | 1017.4 |
| 20260507015751 | 61 | 25 | 1.0 | 3.0 | 0.00 | 0.12 | 0.12 | 81 | 1017.1 |
| 20260507015248 | 61 | 52 | 2.0 | 3.0 | 0.00 | 0.12 | 0.12 | 81 | 1017.2 |
| 20260507014745 | 61 | 37 | 1.0 | 5.0 | 0.00 | 0.12 | 0.12 | 80 | 1017.0 |
| 20260507014241 | 61 | 79 | 3.0 | 3.0 | 0.00 | 0.12 | 0.12 | 81 | 1016.9 |
| 20260507013738 | 62 | 67 | 3.0 | 6.0 | 0.00 | 0.12 | 0.12 | 81 | 1016.8 |
| 20260507013236 | 62 | 101 | 1.0 | 9.0 | 0.00 | 0.12 | 0.12 | 80 | 1016.8 |
| 20260507012733 | 62 | 55 | 2.0 | 6.0 | 0.00 | 0.12 | 0.12 | 80 | 1016.5 |
| 20260507012228 | 62 | 33 | 6.0 | 8.0 | 0.00 | 0.12 | 0.12 | 80 | 1016.4 |
| 20260507011726 | 62 | 26 | 1.0 | 7.0 | 0.00 | 0.12 | 0.12 | 80 | 1016.3 |
| 20260507011223 | 62 | 98 | 2.0 | 6.0 | 0.00 | 0.12 | 0.12 | 81 | 1016.2 |
| 20260507010722 | 62 | 44 | 1.0 | 5.0 | 0.00 | 0.12 | 0.12 | 82 | 1016.3 |
| 20260507010218 | 62 | 12 | 5.0 | 7.0 | 0.00 | 0.12 | 0.12 | 83 | 1016.3 |
| 20260507005716 | 62 | 351 | 1.0 | 2.0 | 0.00 | 0.12 | 0.12 | 87 | 1016.1 |
| 20260507005212 | 61 | 107 | 0.0 | 1.0 | 0.00 | 0.12 | 0.12 | 87 | 1016.3 |
| 20260507004709 | 61 | 54 | 1.0 | 1.0 | 0.00 | 0.12 | 0.12 | 87 | 1016.0 |
| 20260507004207 | 62 | 85 | 0.0 | 2.0 | 0.00 | 0.12 | 0.12 | 86 | 1016.0 |
| 20260507003703 | 62 | 113 | 1.0 | 2.0 | 0.00 | 0.12 | 0.12 | 86 | 1016.1 |
| 20260507003158 | 62 | 97 | 0.0 | 1.0 | 0.00 | 0.12 | 0.12 | 86 | 1016.0 |
| 20260507002654 | 62 | 104 | 0.0 | 1.0 | 0.00 | 0.12 | 0.12 | 86 | 1016.1 |
| 20260507002150 | 62 | 42 | 3.0 | 5.0 | 0.00 | 0.12 | 0.12 | 86 | 1015.9 |
| 20260507001647 | 62 | 81 | 1.0 | 2.0 | 0.00 | 0.12 | 0.12 | 86 | 1015.9 |
| 20260507001144 | 62 | 73 | 1.0 | 2.0 | 0.00 | 0.12 | 0.12 | 86 | 1015.9 |
| 20260507000641 | 61 | 86 | 2.0 | 3.0 | 0.00 | 0.12 | 0.12 | 85 | 1015.8 |
| 20260507000136 | 61 | 43 | 1.0 | 3.0 | 0.00 | 0.12 | 0.12 | 86 | 1015.8 |
| 20260506235634 | 61 | 81 | 1.0 | 3.0 | 0.00 | 0.12 | 0.12 | 86 | 1015.7 |
| 20260506235134 | 61 | 29 | 0.0 | 2.0 | 0.00 | 0.12 | 0.12 | 86 | 1015.7 |
| 20260506234631 | 61 | 66 | 1.0 | 3.0 | 0.00 | 0.12 | 0.12 | 85 | 1015.7 |
| 20260506234128 | 61 | 79 | 3.0 | 3.0 | 0.00 | 0.12 | 0.12 | 85 | 1015.7 |
| 20260506233625 | 61 | 31 | 3.0 | 3.0 | 0.00 | 0.12 | 0.12 | 86 | 1015.5 |
| 20260506233122 | 61 | 77 | 1.0 | 1.0 | 0.00 | 0.12 | 0.12 | 86 | 1015.4 |
| 20260506232618 | 61 | 58 | 3.0 | 5.0 | 0.00 | 0.12 | 0.12 | 86 | 1015.5 |
| 20260506232114 | 61 | 105 | 0.0 | 3.0 | 0.00 | 0.12 | 0.12 | 85 | 1015.3 |
| 20260506231611 | 61 | 50 | 3.0 | 5.0 | 0.00 | 0.12 | 0.12 | 83 | 1015.4 |
| 20260506231109 | 61 | 67 | 3.0 | 5.0 | 0.00 | 0.12 | 0.12 | 85 | 1015.5 |
| 20260506230606 | 61 | 62 | 3.0 | 6.0 | 0.00 | 0.12 | 0.12 | 86 | 1015.4 |
| 20260506230103 | 60 | 34 | 2.0 | 2.0 | 0.00 | 0.12 | 0.12 | 87 | 1015.1 |
| 20260506225559 | 60 | 56 | 2.0 | 3.0 | 0.00 | 0.12 | 0.12 | 88 | 1015.1 |
| 20260506225056 | 59 | 28 | 1.0 | 6.0 | 0.00 | 0.12 | 0.12 | 90 | 1015.2 |
| 20260506224553 | 60 | 81 | 0.0 | 1.0 | 0.05 | 0.12 | 0.12 | 88 | 1015.3 |
| 20260506224050 | 60 | 64 | 2.0 | 3.0 | 0.31 | 0.12 | 0.12 | 87 | 1015.3 |
| 20260506223545 | 61 | 33 | 2.0 | 6.0 | 0.31 | 0.11 | 0.11 | 84 | 1015.3 |
| 20260506223042 | 62 | 300 | 5.0 | 7.0 | 0.00 | 0.06 | 0.06 | 77 | 1015.6 |
| 20260506222539 | 62 | 311 | 2.0 | 6.0 | 0.00 | 0.06 | 0.06 | 74 | 1015.5 |
| 20260506222035 | 62 | 52 | 2.0 | 5.0 | 0.00 | 0.06 | 0.06 | 73 | 1015.0 |
| 20260506221533 | 62 | 30 | 2.0 | 6.0 | 0.00 | 0.06 | 0.06 | 73 | 1015.1 |
| 20260506221031 | 63 | 341 | 1.0 | 5.0 | 0.00 | 0.06 | 0.06 | 72 | 1015.0 |
| 20260506220526 | 63 | 334 | 5.0 | 6.0 | 0.00 | 0.06 | 0.06 | 72 | 1015.3 |
| 20260506220022 | 63 | 352 | 2.0 | 3.0 | 0.00 | 0.06 | 0.06 | 73 | 1015.0 |
| 20260506215519 | 62 | 97 | 1.0 | 6.0 | 0.00 | 0.06 | 0.06 | 73 | 1015.2 |
| 20260506215015 | 63 | 344 | 4.0 | 8.0 | 0.00 | 0.06 | 0.06 | 73 | 1015.2 |
| 20260506214512 | 63 | 256 | 2.0 | 6.0 | 0.00 | 0.06 | 0.06 | 72 | 1015.2 |
| 20260506214009 | 63 | 72 | 3.0 | 6.0 | 0.00 | 0.06 | 0.06 | 72 | 1015.1 |
| 20260506213507 | 62 | 356 | 6.0 | 6.0 | 0.00 | 0.06 | 0.06 | 73 | 1015.4 |
| 20260506213004 | 62 | 281 | 1.0 | 6.0 | 0.00 | 0.06 | 0.06 | 73 | 1015.4 |
| 20260506212500 | 62 | 348 | 5.0 | 6.0 | 0.00 | 0.06 | 0.06 | 72 | 1015.4 |
| 20260506211955 | 62 | 49 | 1.0 | 5.0 | 0.00 | 0.06 | 0.06 | 74 | 1015.2 |
| 20260506211451 | 62 | 55 | 3.0 | 5.0 | 0.00 | 0.06 | 0.06 | 72 | 1015.0 |
| 20260506210949 | 62 | 67 | 0.0 | 3.0 | 0.00 | 0.06 | 0.06 | 73 | 1015.2 |
| 20260506210445 | 63 | 69 | 1.0 | 3.0 | 0.00 | 0.06 | 0.06 | 72 | 1015.4 |
| 20260506205942 | 62 | 42 | 2.0 | 6.0 | 0.00 | 0.06 | 0.06 | 73 | 1015.4 |
| 20260506205438 | 62 | 59 | 1.0 | 5.0 | 0.00 | 0.06 | 0.06 | 73 | 1015.4 |
| 20260506204934 | 61 | 92 | 2.0 | 6.0 | 0.00 | 0.06 | 0.06 | 74 | 1015.5 |
| 20260506204433 | 61 | 55 | 3.0 | 5.0 | 0.00 | 0.06 | 0.06 | 74 | 1015.6 |
| 20260506203930 | 61 | 106 | 0.0 | 2.0 | 0.00 | 0.06 | 0.06 | 75 | 1015.5 |
| 20260506203427 | 62 | 346 | 4.0 | 6.0 | 0.00 | 0.06 | 0.06 | 73 | 1015.6 |
| 20260506202924 | 62 | 47 | 3.0 | 7.0 | 0.00 | 0.06 | 0.06 | 73 | 1015.7 |
| 20260506202421 | 62 | 291 | 4.0 | 7.0 | 0.00 | 0.06 | 0.06 | 72 | 1015.4 |
| 20260506201917 | 63 | 328 | 4.0 | 6.0 | 0.00 | 0.06 | 0.06 | 72 | 1015.9 |
| 20260506201415 | 61 | 39 | 3.0 | 6.0 | 0.00 | 0.06 | 0.06 | 73 | 1016.1 |
| 20260506200911 | 62 | 289 | 4.0 | 6.0 | 0.00 | 0.06 | 0.06 | 73 | 1015.8 |
| 20260506200407 | 61 | 23 | 3.0 | 6.0 | 0.00 | 0.06 | 0.06 | 75 | 1016.2 |
| 20260506195904 | 61 | 268 | 3.0 | 5.0 | 0.00 | 0.06 | 0.06 | 75 | 1016.1 |
| 20260506195401 | 60 | 68 | 4.0 | 7.0 | 0.00 | 0.06 | 0.06 | 75 | 1016.2 |
| 20260506194858 | 60 | 312 | 3.0 | 8.0 | 0.00 | 0.06 | 0.06 | 76 | 1016.5 |
| 20260506194355 | 60 | 305 | 3.0 | 6.0 | 0.00 | 0.06 | 0.06 | 76 | 1016.6 |
| 20260506193852 | 60 | 286 | 3.0 | 6.0 | 0.00 | 0.06 | 0.06 | 77 | 1016.3 |
| 20260506193349 | 59 | 312 | 6.0 | 9.0 | 0.00 | 0.06 | 0.06 | 78 | 1016.4 |
| 20260506192845 | 59 | 354 | 5.0 | 8.0 | 0.00 | 0.06 | 0.06 | 77 | 1016.6 |
| 20260506192342 | 59 | 61 | 3.0 | 6.0 | 0.00 | 0.06 | 0.06 | 78 | 1016.5 |
| 20260506191839 | 59 | 342 | 3.0 | 6.0 | 0.00 | 0.06 | 0.06 | 79 | 1016.6 |
| 20260506191335 | 58 | 16 | 2.0 | 3.0 | 0.00 | 0.06 | 0.06 | 80 | 1016.6 |
| 20260506190832 | 58 | 320 | 1.0 | 3.0 | 0.00 | 0.06 | 0.06 | 80 | 1016.8 |
| 20260506190328 | 57 | 280 | 3.0 | 5.0 | 0.00 | 0.06 | 0.06 | 81 | 1017.1 |
| 20260506185826 | 57 | 320 | 2.0 | 3.0 | 0.00 | 0.06 | 0.06 | 82 | 1017.0 |
| 20260506185323 | 57 | 10 | 4.0 | 5.0 | 0.00 | 0.06 | 0.06 | 81 | 1017.1 |
| 20260506184820 | 57 | 9 | 1.0 | 5.0 | 0.00 | 0.06 | 0.06 | 82 | 1017.1 |
| 20260506184317 | 57 | 7 | 3.0 | 5.0 | 0.00 | 0.06 | 0.06 | 81 | 1017.1 |
| 20260506183814 | 57 | 14 | 2.0 | 5.0 | 0.00 | 0.06 | 0.06 | 81 | 1017.0 |
| 20260506183309 | 57 | 0 | 3.0 | 5.0 | 0.00 | 0.06 | 0.06 | 81 | 1017.0 |
| 20260506182806 | 58 | 61 | 2.0 | 2.0 | 0.00 | 0.06 | 0.06 | 81 | 1017.0 |
| 20260506182306 | 57 | 305 | 3.0 | 5.0 | 0.00 | 0.06 | 0.06 | 81 | 1016.7 |
| 20260506181801 | 57 | 20 | 2.0 | 3.0 | 0.00 | 0.06 | 0.06 | 82 | 1016.3 |
| 20260506181259 | 57 | 321 | 3.0 | 6.0 | 0.00 | 0.06 | 0.06 | 82 | 1016.2 |
| 20260506180756 | 57 | 69 | 2.0 | 6.0 | 0.00 | 0.06 | 0.06 | 83 | 1015.7 |
| 20260506180252 | 57 | 54 | 4.0 | 9.0 | 0.00 | 0.06 | 0.06 | 82 | 1015.3 |
| 20260506175748 | 57 | 34 | 5.0 | 17.0 | 0.00 | 0.06 | 0.06 | 83 | 1015.4 |
| 20260506175245 | 57 | 51 | 4.0 | 8.0 | 0.00 | 0.06 | 0.06 | 83 | 1015.7 |
| 20260506174743 | 57 | 275 | 3.0 | 8.0 | 0.00 | 0.06 | 0.06 | 84 | 1015.8 |
| 20260506174239 | 56 | 46 | 5.0 | 7.0 | 0.00 | 0.06 | 0.06 | 85 | 1015.7 |
| 20260506173737 | 56 | 86 | 2.0 | 5.0 | 0.00 | 0.06 | 0.06 | 86 | 1016.0 |
| 20260506173234 | 56 | 72 | 3.0 | 9.0 | 0.00 | 0.06 | 0.06 | 86 | 1016.2 |
| 20260506172731 | 56 | 283 | 3.0 | 10.0 | 0.00 | 0.06 | 0.06 | 86 | 1016.5 |
| 20260506172227 | 56 | 45 | 2.0 | 3.0 | 0.00 | 0.06 | 0.06 | 86 | 1016.5 |
| 20260506171725 | 55 | 338 | 3.0 | 7.0 | 0.00 | 0.06 | 0.06 | 87 | 1016.4 |
| 20260506171222 | 55 | 41 | 5.0 | 8.0 | 0.00 | 0.06 | 0.06 | 87 | 1016.2 |
| 20260506170720 | 55 | 49 | 3.0 | 7.0 | 0.00 | 0.06 | 0.06 | 88 | 1016.2 |
| 20260506170216 | 55 | 19 | 4.0 | 6.0 | 0.00 | 0.06 | 0.06 | 88 | 1016.4 |
| 20260506165715 | 55 | 115 | 0.0 | 6.0 | 0.00 | 0.06 | 0.06 | 88 | 1016.4 |
| 20260506165211 | 55 | 305 | 3.0 | 7.0 | 0.00 | 0.06 | 0.06 | 88 | 1016.3 |
| 20260506164708 | 55 | 18 | 5.0 | 7.0 | 0.00 | 0.06 | 0.06 | 87 | 1016.6 |
| 20260506164205 | 55 | 82 | 1.0 | 10.0 | 0.00 | 0.06 | 0.06 | 88 | 1016.5 |
| 20260506163702 | 55 | 37 | 5.0 | 7.0 | 0.00 | 0.06 | 0.06 | 87 | 1016.2 |
| 20260506163157 | 55 | 184 | 1.0 | 7.0 | 0.00 | 0.06 | 0.06 | 88 | 1016.2 |
| 20260506162653 | 55 | 56 | 1.0 | 5.0 | 0.00 | 0.06 | 0.06 | 88 | 1016.6 |
| 20260506162151 | 55 | 102 | 2.0 | 6.0 | 0.00 | 0.06 | 0.06 | 88 | 1016.3 |
| 20260506161648 | 55 | 59 | 5.0 | 8.0 | 0.00 | 0.06 | 0.06 | 87 | 1016.3 |
| 20260506161144 | 55 | 74 | 2.0 | 8.0 | 0.00 | 0.06 | 0.06 | 87 | 1016.4 |
| 20260506160642 | 55 | 318 | 4.0 | 6.0 | 0.00 | 0.06 | 0.06 | 87 | 1016.4 |
| 20260506160139 | 55 | 53 | 4.0 | 6.0 | 0.00 | 0.06 | 0.06 | 88 | 1016.4 |
| 20260506155638 | 55 | 22 | 3.0 | 5.0 | 0.00 | 0.06 | 0.06 | 87 | 1016.5 |
| 20260506155134 | 55 | 0 | 3.0 | 5.0 | 0.00 | 0.06 | 0.06 | 88 | 1016.6 |
| 20260506153236 | 53 | 236 | 1.0 | 6.0 | 0.00 | 0.06 | 0.06 | 92 | 1015.8 |
| 20260506152733 | 53 | 43 | 3.0 | 8.0 | 0.00 | 0.06 | 0.06 | 92 | 1015.4 |
| 20260506152231 | 53 | 77 | 2.0 | 9.0 | 0.00 | 0.06 | 0.06 | 92 | 1015.6 |
| 20260506151730 | 53 | 296 | 2.0 | 8.0 | 0.07 | 0.06 | 0.06 | 92 | 1016.4 |
| 20260506151225 | 53 | 89 | 4.0 | 6.0 | 0.12 | 0.06 | 0.06 | 91 | 1017.1 |
| 20260506150722 | 53 | 310 | 1.0 | 3.0 | 0.21 | 0.05 | 0.05 | 91 | 1018.4 |
| 20260506150219 | 53 | 98 | 4.0 | 9.0 | 0.26 | 0.04 | 0.04 | 90 | 1015.8 |
| 20260506145717 | 54 | 332 | 3.0 | 5.0 | 0.05 | 0.01 | 0.01 | 87 | 1017.9 |
| 20260506145213 | 54 | 219 | 4.0 | 6.0 | 0.00 | 0.00 | 0.00 | 85 | 1018.1 |
| 20260506144710 | 54 | 334 | 1.0 | 3.0 | 0.00 | 0.00 | 0.00 | 84 | 1018.3 |
| 20260506144207 | 54 | 62 | 1.0 | 5.0 | 0.00 | 0.00 | 0.00 | 84 | 1017.8 |
| 20260506143705 | 54 | 287 | 3.0 | 5.0 | 0.00 | 0.00 | 0.00 | 82 | 1017.9 |
| 20260506143202 | 54 | 62 | 1.0 | 3.0 | 0.00 | 0.00 | 0.00 | 82 | 1018.0 |
| 20260506142701 | 54 | 42 | 2.0 | 6.0 | 0.00 | 0.00 | 0.00 | 82 | 1016.6 |
| 20260506142158 | 54 | 62 | 4.0 | 7.0 | 0.00 | 0.00 | 0.00 | 82 | 1015.7 |
| 20260506141656 | 54 | 18 | 4.0 | 10.0 | 0.00 | 0.00 | 0.00 | 82 | 1016.2 |
| 20260506141154 | 54 | 356 | 7.0 | 10.0 | 0.00 | 0.00 | 0.00 | 82 | 1016.1 |
| 20260506140651 | 54 | 335 | 3.0 | 10.0 | 0.00 | 0.00 | 0.00 | 82 | 1016.5 |
| 20260506140148 | 54 | 301 | 3.0 | 8.0 | 0.00 | 0.00 | 0.00 | 82 | 1016.7 |
| 20260506135645 | 54 | 330 | 3.0 | 9.0 | 0.00 | 0.00 | 0.00 | 82 | 1016.2 |
| 20260506135141 | 54 | 355 | 5.0 | 10.0 | 0.00 | 0.00 | 0.00 | 82 | 1016.4 |
| 20260506134638 | 54 | 322 | 4.0 | 8.0 | 0.00 | 0.00 | 0.00 | 82 | 1016.2 |
| 20260506134133 | 54 | 13 | 4.0 | 11.0 | 0.00 | 0.00 | 0.00 | 82 | 1015.8 |
| 20260506133631 | 54 | 3 | 4.0 | 13.0 | 0.00 | 0.00 | 0.00 | 82 | 1015.8 |
| 20260506133128 | 54 | 28 | 5.0 | 13.0 | 0.00 | 0.00 | 0.00 | 81 | 1015.8 |
| 20260506132626 | 54 | 0 | 3.0 | 9.0 | 0.00 | 0.00 | 0.00 | 81 | 1015.6 |
| 20260506132122 | 55 | 86 | 1.0 | 9.0 | 0.00 | 0.00 | 0.00 | 80 | 1015.4 |
| 20260506131620 | 55 | 274 | 3.0 | 8.0 | 0.00 | 0.00 | 0.00 | 79 | 1015.6 |
| 20260506131116 | 55 | 5 | 1.0 | 7.0 | 0.00 | 0.00 | 0.00 | 79 | 1015.3 |
| 20260506130613 | 55 | 306 | 7.0 | 9.0 | 0.00 | 0.00 | 0.00 | 78 | 1015.3 |
| 20260506130110 | 55 | 213 | 3.0 | 10.0 | 0.00 | 0.00 | 0.00 | 78 | 1015.0 |
| 20260506125609 | 55 | 122 | 0.0 | 7.0 | 0.00 | 0.00 | 0.00 | 78 | 1014.9 |
| 20260506125106 | 55 | 81 | 9.0 | 11.0 | 0.00 | 0.00 | 0.00 | 78 | 1015.2 |
| 20260506124603 | 55 | 20 | 3.0 | 7.0 | 0.00 | 0.00 | 0.00 | 77 | 1014.9 |
| 20260506124101 | 55 | 286 | 8.0 | 9.0 | 0.00 | 0.00 | 0.00 | 77 | 1015.0 |
| 20260506123558 | 55 | 121 | 4.0 | 10.0 | 0.00 | 0.00 | 0.00 | 76 | 1014.8 |
| 20260506123057 | 56 | 2 | 6.0 | 11.0 | 0.00 | 0.00 | 0.00 | 76 | 1014.9 |
| 20260506122553 | 56 | 317 | 6.0 | 13.0 | 0.00 | 0.00 | 0.00 | 75 | 1014.7 |
| 20260506122052 | 56 | 306 | 6.0 | 9.0 | 0.00 | 0.00 | 0.00 | 75 | 1014.6 |
| 20260506121549 | 56 | 11 | 3.0 | 7.0 | 0.00 | 0.00 | 0.00 | 76 | 1014.4 |
| 20260506121044 | 56 | 301 | 1.0 | 7.0 | 0.00 | 0.00 | 0.00 | 76 | 1014.4 |
| 20260506120543 | 56 | 56 | 2.0 | 7.0 | 0.00 | 0.00 | 0.00 | 76 | 1014.2 |
| 20260506120040 | 56 | 11 | 6.0 | 9.0 | 0.00 | 0.00 | 0.00 | 76 | 1014.6 |
| 20260506115538 | 57 | 330 | 5.0 | 8.0 | 0.00 | 0.00 | 0.00 | 76 | 1014.3 |
| 20260506115036 | 57 | 54 | 2.0 | 7.0 | 0.00 | 0.00 | 0.00 | 76 | 1014.5 |
| 20260506114533 | 57 | 304 | 5.0 | 7.0 | 0.00 | 0.00 | 0.00 | 76 | 1014.4 |
| 20260506114032 | 57 | 10 | 1.0 | 8.0 | 0.00 | 0.00 | 0.00 | 75 | 1014.2 |
| 20260506113529 | 57 | 302 | 6.0 | 10.0 | 0.00 | 0.00 | 0.00 | 75 | 1014.1 |
| 20260506113026 | 57 | 355 | 6.0 | 11.0 | 0.00 | 0.00 | 0.00 | 75 | 1014.1 |
| 20260506112522 | 57 | 47 | 6.0 | 8.0 | 0.00 | 0.00 | 0.00 | 75 | 1013.9 |
| 20260506112020 | 57 | 72 | 2.0 | 7.0 | 0.00 | 0.00 | 0.00 | 75 | 1013.6 |
| 20260506111518 | 58 | 36 | 4.0 | 6.0 | 0.00 | 0.00 | 0.00 | 75 | 1013.6 |
| 20260506111015 | 58 | 253 | 4.0 | 7.0 | 0.00 | 0.00 | 0.00 | 75 | 1013.2 |
| 20260506110513 | 58 | 342 | 3.0 | 6.0 | 0.00 | 0.00 | 0.00 | 74 | 1013.5 |
| 20260506110010 | 58 | 129 | 1.0 | 10.0 | 0.00 | 0.00 | 0.00 | 75 | 1013.7 |
| 20260506105505 | 58 | 49 | 5.0 | 8.0 | 0.00 | 0.00 | 0.00 | 75 | 1013.4 |
| 20260506105003 | 58 | 340 | 3.0 | 7.0 | 0.00 | 0.00 | 0.00 | 75 | 1013.4 |
| 20260506104501 | 58 | 312 | 4.0 | 7.0 | 0.00 | 0.00 | 0.00 | 75 | 1013.2 |
| 20260506103959 | 58 | 317 | 5.0 | 8.0 | 0.00 | 0.00 | 0.00 | 75 | 1013.3 |
| 20260506103455 | 58 | 295 | 5.0 | 10.0 | 0.00 | 0.00 | 0.00 | 75 | 1013.2 |
| 20260506102952 | 59 | 347 | 4.0 | 7.0 | 0.00 | 0.00 | 0.00 | 75 | 1013.0 |
| 20260506102450 | 59 | 319 | 7.0 | 8.0 | 0.00 | 0.00 | 0.00 | 75 | 1012.7 |
| 20260506101948 | 59 | 309 | 6.0 | 9.0 | 0.00 | 0.00 | 0.00 | 76 | 1012.7 |
| 20260506101444 | 59 | 330 | 3.0 | 6.0 | 0.00 | 0.00 | 0.00 | 76 | 1012.4 |
| 20260506100941 | 59 | 10 | 5.0 | 7.0 | 0.00 | 0.00 | 0.00 | 75 | 1012.3 |
| 20260506100439 | 59 | 9 | 3.0 | 7.0 | 0.00 | 0.00 | 0.00 | 75 | 1012.3 |
| 20260506095937 | 59 | 304 | 3.0 | 5.0 | 0.00 | 0.00 | 0.00 | 75 | 1012.3 |
| 20260506095435 | 59 | 313 | 3.0 | 7.0 | 0.00 | 0.00 | 0.00 | 75 | 1012.3 |
| 20260506094931 | 60 | 9 | 6.0 | 9.0 | 0.00 | 0.00 | 0.00 | 75 | 1012.0 |
| 20260506094430 | 60 | 326 | 3.0 | 5.0 | 0.00 | 0.00 | 0.00 | 75 | 1012.3 |
| 20260506093927 | 60 | 336 | 6.0 | 8.0 | 0.00 | 0.00 | 0.00 | 75 | 1012.0 |
| 20260506093425 | 60 | 297 | 3.0 | 7.0 | 0.00 | 0.00 | 0.00 | 75 | 1012.0 |
| 20260506092923 | 60 | 295 | 3.0 | 6.0 | 0.00 | 0.00 | 0.00 | 75 | 1012.1 |
| 20260506092421 | 60 | 313 | 2.0 | 7.0 | 0.00 | 0.00 | 0.00 | 75 | 1012.0 |
| 20260506091917 | 60 | 355 | 3.0 | 8.0 | 0.00 | 0.00 | 0.00 | 75 | 1011.9 |
| 20260506091415 | 60 | 346 | 4.0 | 8.0 | 0.00 | 0.00 | 0.00 | 75 | 1012.0 |
| 20260506090912 | 61 | 247 | 3.0 | 5.0 | 0.00 | 0.00 | 0.00 | 75 | 1012.0 |
| 20260506090409 | 60 | 358 | 2.0 | 5.0 | 0.00 | 0.00 | 0.00 | 76 | 1011.8 |
| 20260506085906 | 61 | 1 | 2.0 | 8.0 | 0.00 | 0.00 | 0.00 | 76 | 1011.9 |
| 20260506085403 | 61 | 306 | 5.0 | 7.0 | 0.00 | 0.00 | 0.00 | 76 | 1011.6 |
| 20260506084859 | 61 | 291 | 4.0 | 7.0 | 0.00 | 0.00 | 0.00 | 76 | 1011.9 |
| 20260506084356 | 61 | 0 | 4.0 | 6.0 | 0.00 | 0.00 | 0.00 | 76 | 1011.7 |
| 20260506083852 | 61 | 32 | 1.0 | 5.0 | 0.00 | 0.00 | 0.00 | 76 | 1011.7 |
| 20260506083350 | 61 | 79 | 3.0 | 3.0 | 0.00 | 0.00 | 0.00 | 77 | 1011.6 |
| 20260506082847 | 61 | 336 | 2.0 | 5.0 | 0.00 | 0.00 | 0.00 | 77 | 1011.5 |
| 20260506082344 | 62 | 285 | 2.0 | 6.0 | 0.00 | 0.00 | 0.00 | 77 | 1011.5 |